Regional Weather Roundup
Issued by NWS

Home | Current Version | Previous Version | Graphics & Text | Print | Product List | Glossary On
Versions: 1 2 3 4 5 6 7 8 9 10 11 12 13 14 15 16 17 18 19 20 21 22 23 24 25 26 27 28 29 30 31 32 33 34 35 36 37 38 39 40 41 42 43 44 45 46 47 48 49 50
000
ASUS44 KMEG 211400
RWRTN
TENNESSEE HOURLY STATE WEATHER ROUNDUP
NATIONAL WEATHER SERVICE MEMPHIS TN
800 AM CST SAT JAN 21 2017

TNZ002-004-019-021-049-052-054-088>092-211500-
WEST TENNESSEE

CITY           SKY/WX    TMP DP  RH WIND       PRES   REMARKS
MEMPHIS INTL   CLOUDY    61  53  75 S9        29.67R
NWS MEMPHIS      N/A     62 N/A N/A MISG        N/A
JACKSON        CLOUDY    60  54  80 VRB6      29.69R
DYERSBURG      CLOUDY    61  52  72 S3        29.65S
UNION CITY     PTCLDY    57  57 100 CALM      29.64F
PARIS          PTCLDY    55  52  88 S5        29.68S
$$

TNZ008-025-027-028-033-062-065-066-211500-
NORTH MIDDLE TENNESSEE

CITY           SKY/WX    TMP DP  RH WIND       PRES   REMARKS
NASHVILLE      CLOUDY    60  56  86 S6        29.75S
CLARKSVILLE    CLOUDY    58  51  78 S6        29.71S
SMYRNA         CLOUDY    57  55  93 SE3       29.76F
CROSSVILLE     FOG       54  53  97 E3        29.81F VSB 1/2
$$

TNZ061-075-076-078-094-096-097-211500-
SOUTH MIDDLE TENNESSEE

CITY           SKY/WX    TMP DP  RH WIND       PRES   REMARKS
TULLAHOMA      MOSUNNY   54  54 100 NW6       29.76F
WINCHESTER     MOSUNNY   57  57 100 SE6       29.76S
MCMINNVILLE    SUNNY     54  54 100 N3        29.75F
COLUMBIA       PTSUNNY  N/A N/A N/A S13       29.75R
SHELBYVILLE    CLOUDY    66  46  48 SW6       29.77F
$$

TNZ017-018-042-046-047-211500-
NORTHEAST TENNESSEE

CITY           SKY/WX    TMP DP  RH WIND       PRES   REMARKS
TRI CITIES     PTSUNNY   45  44  97 N3        29.87S
$$

TNZ012-013-036-069-073-074-211500-
CENTRAL EAST TENNESSEE

CITY           SKY/WX    TMP DP  RH WIND       PRES   REMARKS
KNOXVILLE      CLOUDY    50  47  89 CALM      29.83S
OAK RIDGE      CLOUDY    51  48  89 CALM      29.84S
GATLINBURG     SUNNY     45  45 100 CALM      29.84R
$$

TNZ083-085-099-211500-
SOUTHEAST TENNESSEE

CITY           SKY/WX    TMP DP  RH WIND       PRES   REMARKS
CHATTANOOGA    CLOUDY    56  54  93 CALM      29.79S FOG
$$

SKY/WX REPORTED AS FAIR MEANS FEW OR NO CLOUDS BELOW
12 THOUSAND FEET.





USA.gov is the U.S. government's official web portal to all federal, state and local government web resources and services.